Wetbulb
69.86 69.49 68.61 67.30 66.32 67.06 67.60 65.18 64.00 60.72 60.73 65.12 64.46 67.72 69.67 70.26 71.08 71.19 70.56 70.37 69.77 68.85 67.63 67.54 68.54 69.53 70.41 70.60 70.83 71.09 71.21 71.49 71.65 71.77 72.55 73.47 74.14 74.62
70.52 69.03 69.29 69.23 68.80 69.33 68.63 68.34 67.01 64.11 61.58 65.14 67.05 67.24 68.62 70.47 71.94 71.69 72.36 71.57 70.12 68.29 68.54 67.81 67.69 68.34 69.07 69.36 69.42 69.39 69.63 70.04 69.91 70.02 70.16 70.58 71.31 72.23
70.05 69.07 68.94 69.61 69.46 69.76 69.67 69.40 68.41 67.22 63.73 65.61 67.66 69.36 69.02 68.59 69.43 71.63 73.51 72.61 72.14 68.80 68.91 68.19 67.23 67.14 67.39 67.47 67.05 67.82 68.53 68.53 68.62 68.86 69.11 69.55 69.95 70.68
69.35 69.33 69.23 70.69 68.58 69.07 69.37 68.53 68.15 68.25 66.46 64.52 66.70 68.38 68.30 69.72 69.41 70.19 71.74 72.81 71.78 70.26 68.26 67.42 66.92 66.61 65.65 64.45 63.59 64.92 65.27 65.68 66.43 66.08 66.79 67.37 68.40 69.19
70.53 69.92 69.70 69.45 68.54 68.24 68.47 68.51 68.25 69.85 68.59 67.19 66.54 68.05 68.47 70.01 69.93 70.08 68.77 69.51 72.06 71.33 69.32 68.73 67.50 66.79 65.65 64.66 62.34 61.30 60.70 61.46 62.18 62.03 62.33 63.47 64.84 66.77
70.99 71.09 70.63 69.73 68.84 68.88 68.91 68.87 69.05 68.27 67.89 66.74 66.31 66.94 67.53 69.49 68.93 66.99 65.81 67.69 68.91 70.28 70.80 69.24 68.24 68.46 65.72 63.31 63.23 61.71 60.56 61.98 59.42 59.67 60.10 60.63 61.73 63.11
70.26 70.26 69.19 69.17 67.96 67.71 69.35 68.78 68.09 67.01 66.70 66.29 65.93 66.24 66.62 66.49 65.30 65.84 64.94 66.13 67.24 66.44 68.09 68.71 69.60 67.94 63.06 63.38 62.57 61.09 59.04 59.29 58.39 59.80 60.77 61.63 58.71 59.10
68.83 66.70 66.36 68.00 66.68 65.96 65.89 66.81 68.00 67.35 66.21 66.92 66.51 65.43 64.50 64.14 63.42 62.19 63.25 64.19 63.18 65.01 64.64 66.43 67.09 67.98 60.37 60.32 60.72 58.77 57.28 56.57 56.28 55.90 56.68 60.29 59.62 60.35
68.32 65.02 61.25 60.74 63.14 66.01 62.96 60.95 60.81 61.73 65.46 66.92 64.24 63.26 62.70 62.57 62.17 61.15 62.31 63.75 62.60 60.16 63.38 64.56 65.63 66.38 61.59 59.33 59.99 57.49 56.13 55.55 55.65 55.35 55.05 55.35 57.25 56.96
63.94 61.42 59.18 60.51 61.07 64.70 61.19 56.83 56.22 56.69 57.10 58.45 59.05 60.20 60.54 61.69 62.49 62.42 63.62 63.23 65.75 58.94 56.19 61.27 63.02 62.00 64.53 57.67 58.90 56.30 55.02 54.52 54.32 54.39 54.31 52.90 52.52 53.74
59.49 60.36 60.96 60.16 58.23 59.15 58.39 53.36 56.15 56.86 58.82 58.44 58.71 57.87 57.14 57.63 60.20 60.76 58.32 56.29 57.23 56.91 51.57 56.28 51.79 54.74 63.45 54.47 54.94 57.52 53.55 52.80 52.55 53.18 53.79 52.35 51.44 53.17
56.92 57.05 57.08 56.11 56.43 55.06 52.81 54.15 55.32 53.83 54.21 54.52 53.58 53.87 53.66 54.57 56.74 54.97 55.75 54.48 53.75 48.39 50.42 49.72 48.41 51.38 50.36 56.14 51.51 51.38 49.86 51.42 50.87 50.61 51.37 51.48 49.56 51.23
53.96 53.32 53.58 53.54 52.51 52.59 53.66 55.94 54.77 54.30 53.69 51.84 51.58 50.70 50.67 51.63 52.75 53.14 50.99 50.62 47.37 45.22 48.85 52.44 47.95 49.86 48.61 49.07 49.67 48.90 48.81 48.30 47.92 47.07 48.20 48.05 48.62 49.45
54.35 54.19 53.59 51.38 50.05 50.78 52.42 52.54 53.49 53.85 51.72 49.67 47.57 46.57 46.33 47.14 48.09 49.20 48.45 47.81 47.82 46.36 46.74 46.55 45.62 46.22 45.88 45.88 45.37 45.62 45.33 47.29 46.35 44.70 44.92 46.54 47.63 48.35
54.15 54.22 50.44 49.18 49.45 50.72 51.94 51.44 51.70 50.45 47.87 45.18 44.19 44.41 44.28 45.73 45.91 46.45 46.85 44.76 44.69 46.58 47.43 44.12 42.32 43.42 44.85 42.71 43.06 40.75 41.18 42.61 44.30 42.95 42.99 42.73 42.24 43.43
53.60 52.59 51.67 50.95 50.72 49.76 49.56 49.36 48.28 47.51 46.91 46.12 45.49 45.80 46.11 44.73 43.63 44.58 42.88 43.82 41.88 42.24 44.67 45.65 42.62 42.95 42.52 42.82 40.43 39.20 40.57 40.24 42.06 41.58 41.08 41.08 41.85 42.76
48.21 48.33 46.70 45.82 45.69 45.43 45.38 46.02 46.28 46.19 44.72 43.44 42.56 42.21 41.93 41.93 40.87 40.85 40.21 39.94 39.65 39.14 39.87 41.58 42.21 42.02 42.97 41.92 39.09 39.75 40.08 39.36 40.64 40.76 40.46 39.94 40.59 42.25
47.65 47.37 46.08 45.29 45.11 44.29 44.18 44.67 45.13 45.20 43.27 42.39 41.56 41.24 40.70 40.13 39.78 40.21 39.99 38.53 38.03 38.04 38.43 39.04 38.78 37.69 38.16 39.72 44.06 38.38 37.85 37.70 39.13 39.89 39.38 38.69 38.59 41.71
48.14 47.60 46.28 45.52 45.55 44.86 43.61 43.01 42.48 41.92 41.44 41.05 40.84 40.48 40.17 39.83 38.65 38.31 38.24 37.65 37.07 36.16 36.32 36.37 37.05 35.82 34.09 33.58 37.20 44.97 37.59 37.66 38.54 38.27 38.46 38.73 38.28 40.44
47.36 47.67 46.35 46.61 45.22 43.13 42.29 41.67 40.79 39.81 38.76 38.56 38.58 38.64 38.36 38.00 37.44 36.89 36.48 35.45 35.72 35.54 35.14 35.51 36.10 36.21 34.43 34.22 35.21 37.37 43.85 38.24 38.02 38.08 38.30 39.49 40.66 45.92
45.79 46.13 46.36 45.49 43.04 42.35 41.62 41.67 41.57 40.29 38.89 38.28 37.57 37.16 37.38 37.07 36.36 36.53 37.14 38.63 36.73 34.98 34.51 34.67 36.03 42.26 37.63 37.47 35.66 35.91 38.39 44.01 43.13 39.03 38.73 38.15 38.58 38.85
45.94 45.69 45.72 44.94 44.18 43.17 43.45 42.48 41.41 40.10 39.32 37.90 37.48 36.95 36.54 37.12 36.43 36.02 36.02 35.38 35.33 35.55 35.14 35.87 37.32 37.22 36.78 36.69 35.69 36.45 37.15 40.08 43.28 45.62 46.41 44.40 40.92 39.21
45.71 44.93 44.62 44.40 43.21 43.81 41.93 41.39 40.77 40.01 38.13 36.87 36.82 37.29 37.49 36.41 35.74 36.23 36.46 36.69 36.53 35.71 36.39 36.35 36.52 37.16 36.62 36.63 37.75 36.44 37.09 38.09 38.69 39.68 41.08 46.61 47.93 48.40
MSLP
1020.35 1020.30 1020.48 1020.58 1020.72 1020.62 1020.84 1020.96 1021.06 1021.43 1021.08 1020.03 1019.60 1018.33 1018.01 1017.92 1017.91 1017.81 1017.58 1017.26 1017.03 1016.96 1016.36 1016.02 1016.01 1015.98 1016.05 1016.07 1016.02 1015.98 1016.02 1016.04 1016.12 1016.19 1016.26 1016.42 1016.49 1016.61
1020.47 1020.42 1020.42 1020.42 1020.47 1020.48 1020.44 1020.44 1020.68 1020.75 1021.14 1020.19 1019.70 1019.03 1018.53 1018.25 1018.12 1018.09 1017.53 1017.41 1017.28 1017.32 1016.61 1016.29 1016.39 1016.38 1016.17 1015.86 1015.58 1015.44 1015.64 1015.80 1015.92 1016.03 1016.12 1016.18 1016.21 1016.30
1020.24 1020.38 1020.42 1020.36 1020.36 1020.32 1020.32 1020.36 1020.49 1020.42 1020.84 1020.20 1019.81 1019.11 1018.98 1018.90 1018.46 1018.21 1017.88 1017.78 1017.44 1017.18 1016.82 1016.69 1016.64 1016.56 1016.16 1015.53 1015.02 1014.92 1015.19 1015.52 1015.72 1015.80 1015.92 1015.97 1016.04 1016.12
1020.05 1020.05 1020.05 1020.15 1020.15 1020.09 1020.06 1020.08 1020.10 1020.17 1020.39 1020.36 1020.12 1019.74 1019.45 1019.32 1018.88 1018.71 1018.18 1017.83 1017.72 1017.46 1017.32 1017.16 1016.99 1016.93 1016.57 1016.06 1015.03 1015.22 1015.43 1015.78 1015.92 1015.96 1015.98 1015.90 1015.88 1015.84
1019.75 1019.78 1019.81 1019.93 1020.10 1020.00 1019.96 1019.94 1019.97 1020.01 1020.02 1020.19 1020.27 1020.04 1019.81 1019.55 1019.24 1018.83 1018.59 1018.36 1017.93 1017.70 1017.63 1017.62 1017.60 1017.48 1017.21 1016.55 1016.26 1015.92 1016.06 1016.14 1016.10 1015.95 1015.79 1015.72 1015.66 1015.68
1019.63 1019.68 1019.66 1019.79 1019.97 1019.97 1020.12 1020.10 1020.03 1020.10 1020.19 1020.20 1020.17 1020.22 1020.20 1019.87 1019.65 1019.63 1019.35 1018.97 1018.75 1018.36 1018.28 1018.17 1018.16 1018.08 1017.93 1017.37 1017.63 1017.31 1017.02 1017.10 1016.70 1016.46 1016.08 1015.84 1015.85 1016.05
1019.53 1019.63 1019.66 1019.77 1019.76 1019.80 1019.93 1020.02 1020.10 1020.17 1020.32 1020.39 1020.48 1020.51 1020.52 1020.42 1020.32 1020.08 1019.79 1019.56 1019.46 1019.34 1019.13 1018.73 1018.71 1018.75 1018.82 1018.61 1018.54 1018.31 1018.06 1017.78 1017.54 1017.25 1016.86 1016.39 1016.25 1016.21
1019.66 1019.74 1019.78 1019.83 1019.90 1019.78 1019.86 1019.92 1019.96 1020.12 1020.31 1020.36 1020.50 1020.60 1020.47 1020.43 1020.30 1020.25 1020.21 1020.20 1020.19 1019.59 1019.84 1019.57 1019.20 1019.43 1019.78 1019.62 1019.53 1019.22 1018.70 1018.36 1018.10 1017.83 1017.43 1017.16 1017.19 1017.16
1019.56 1019.75 1020.06 1020.12 1020.11 1020.16 1020.06 1019.92 1019.93 1019.92 1019.87 1020.12 1020.52 1020.48 1020.40 1020.28 1020.24 1020.24 1020.26 1020.36 1020.56 1020.57 1020.21 1020.07 1019.88 1019.97 1020.26 1020.13 1020.00 1019.76 1019.46 1019.16 1019.06 1018.68 1018.21 1017.99 1017.88 1017.55
1020.01 1020.25 1020.49 1020.31 1020.35 1020.44 1020.50 1020.42 1020.30 1020.21 1020.13 1020.01 1020.12 1020.22 1020.20 1020.11 1020.20 1020.14 1020.20 1020.45 1020.69 1020.94 1020.80 1020.88 1020.56 1020.67 1020.36 1020.57 1020.54 1020.32 1020.18 1020.07 1019.90 1019.66 1019.28 1018.75 1018.44 1018.51
1020.32 1020.58 1020.84 1020.85 1020.50 1020.60 1020.60 1020.74 1020.75 1020.71 1020.43 1020.37 1020.30 1020.32 1020.40 1020.27 1020.19 1020.34 1020.67 1020.86 1021.29 1021.50 1021.58 1021.66 1021.58 1021.36 1021.06 1021.28 1021.02 1021.06 1021.09 1020.78 1020.59 1020.36 1020.00 1019.79 1019.33 1018.87
1020.08 1020.61 1020.80 1020.88 1020.85 1020.85 1020.84 1020.99 1021.16 1021.36 1021.08 1020.94 1021.08 1020.83 1020.83 1020.89 1020.69 1020.88 1021.08 1021.43 1021.93 1022.39 1022.26 1022.24 1022.04 1021.95 1021.89 1021.83 1021.73 1021.63 1021.50 1021.32 1021.10 1020.85 1020.82 1020.68 1019.97 1019.54
1020.42 1020.85 1021.13 1021.04 1021.08 1021.00 1020.92 1021.09 1021.38 1021.62 1021.80 1021.78 1021.96 1022.15 1022.06 1022.04 1021.94 1021.85 1021.79 1022.08 1022.37 1023.00 1022.94 1022.71 1023.05 1022.74 1022.50 1022.39 1022.58 1022.65 1022.86 1022.41 1021.97 1021.51 1021.03 1020.73 1020.76 1020.63
1021.25 1021.52 1021.51 1021.45 1021.28 1021.27 1021.46 1021.58 1021.52 1021.60 1022.27 1022.73 1022.93 1023.17 1023.19 1023.21 1023.19 1022.92 1023.17 1023.22 1023.33 1023.69 1023.53 1023.17 1023.56 1023.52 1023.27 1023.06 1023.36 1023.40 1022.99 1022.98 1023.06 1022.92 1022.36 1021.56 1021.20 1021.24
1021.28 1021.62 1021.77 1021.73 1021.64 1021.83 1021.88 1021.88 1021.99 1022.16 1022.53 1023.09 1023.70 1024.06 1023.92 1023.86 1023.67 1023.55 1023.76 1024.12 1023.96 1024.05 1023.78 1024.01 1024.11 1023.90 1023.66 1024.17 1024.38 1024.32 1023.96 1023.72 1023.36 1023.12 1022.87 1022.84 1022.17 1021.72
1021.48 1021.76 1021.90 1022.06 1022.11 1022.36 1022.53 1022.61 1022.86 1023.09 1023.20 1023.60 1023.91 1024.10 1023.98 1024.14 1024.40 1024.41 1024.34 1024.40 1024.60 1024.89 1024.60 1024.38 1024.33 1024.11 1024.60 1024.66 1024.81 1025.03 1024.87 1024.76 1024.15 1023.76 1023.55 1022.97 1022.74 1022.44
1022.18 1022.25 1022.26 1022.50 1022.92 1023.30 1023.62 1023.78 1023.90 1023.94 1023.96 1024.14 1024.47 1024.78 1024.98 1025.06 1025.20 1025.07 1025.29 1025.46 1025.87 1025.90 1025.57 1025.10 1024.88 1024.76 1024.50 1024.78 1025.35 1025.50 1025.39 1025.13 1025.07 1024.49 1023.64 1023.38 1022.90 1022.52
1022.27 1022.42 1022.64 1023.12 1023.32 1023.64 1024.13 1024.31 1024.22 1024.60 1024.87 1024.98 1025.23 1025.50 1025.56 1025.74 1025.95 1025.96 1026.08 1026.28 1026.63 1026.74 1026.63 1026.27 1025.64 1025.38 1025.40 1025.28 1025.39 1026.00 1025.73 1025.55 1025.18 1024.86 1024.39 1023.90 1023.34 1022.85
1022.17 1022.44 1022.27 1022.97 1023.87 1024.10 1024.49 1024.86 1025.29 1025.52 1025.57 1025.53 1025.58 1025.81 1026.25 1026.27 1026.55 1026.66 1026.57 1026.74 1027.18 1027.45 1027.28 1026.94 1026.78 1026.38 1026.44 1026.59 1026.15 1025.76 1025.99 1025.58 1025.26 1024.93 1024.57 1024.38 1023.82 1022.76
1022.49 1022.21 1022.76 1023.07 1023.90 1024.29 1024.86 1025.13 1025.56 1025.72 1026.09 1026.31 1026.33 1026.45 1026.78 1026.77 1026.93 1027.25 1027.16 1027.03 1027.37 1027.59 1027.43 1027.22 1027.02 1026.90 1026.98 1027.23 1026.93 1026.34 1025.89 1025.85 1025.40 1025.03 1024.56 1024.00 1023.41 1022.38
1022.44 1022.43 1022.77 1023.07 1023.74 1024.40 1025.09 1025.18 1025.46 1026.22 1026.67 1026.41 1026.71 1027.13 1027.45 1027.39 1027.46 1027.50 1027.50 1027.64 1027.66 1027.67 1027.56 1027.54 1027.42 1026.99 1027.05 1027.07 1026.92 1026.38 1025.94 1025.42 1024.98 1024.63 1024.40 1023.91 1023.28 1022.21
1022.42 1022.77 1022.98 1023.33 1023.41 1024.47 1025.13 1025.29 1025.54 1025.91 1026.66 1026.89 1027.08 1027.30 1027.72 1027.51 1027.78 1027.86 1027.80 1027.79 1027.95 1027.84 1027.75 1027.52 1027.34 1027.23 1027.18 1027.37 1027.34 1026.65 1025.70 1024.85 1024.61 1024.18 1023.70 1023.58 1023.20 1022.64
1022.12 1022.58 1023.22 1023.54 1024.14 1024.42 1024.70 1025.10 1025.71 1026.04 1026.30 1026.82 1027.02 1027.52 1027.87 1028.00 1028.30 1028.29 1028.06 1027.88 1027.64 1027.58 1027.56 1027.51 1027.38 1027.36 1027.41 1027.41 1027.23 1026.62 1026.05 1025.50 1024.66 1023.56 1023.04 1022.78 1022.29 1021.77
Wind_Speed
3 3 2 2 3 2 3 3 4 1 3 4 3 5 5 5 6 5 4 8 10 10 9 12 7 6 9 9 9 8 8 8 8 7 6 8 9 10
3 2 2 2 3 3 2 2 2 3 2 3 2 3 4 4 5 6 6 7 9 8 13 13 10 8 7 9 11 10 8 6 5 6 6 5 7 9
3 4 4 4 4 3 2 2 2 2 2 3 2 2 4 4 6 5 4 4 4 9 12 13 11 11 11 10 10 7 8 6 5 5 5 5 5 7
5 3 4 2 3 3 2 1 0 2 2 1 2 2 2 3 3 3 5 5 4 8 12 13 13 14 14 14 13 6 3 0 5 6 5 4 2 4
4 5 6 3 3 2 1 1 1 1 2 2 1 1 1 2 3 3 4 5 4 10 10 12 13 13 18 22 16 13 11 8 7 8 5 3 2 3
4 1 4 5 6 5 3 4 2 0 1 1 0 1 1 2 1 2 4 3 4 7 6 8 10 14 20 23 23 24 21 15 13 13 12 11 9 10
2 3 3 3 4 1 3 3 2 2 1 1 0 1 1 2 2 3 1 2 2 5 4 7 4 9 11 16 20 26 25 23 21 20 16 15 10 9
5 3 4 4 4 4 3 2 3 2 1 1 1 1 1 1 1 1 2 3 3 5 4 4 4 7 7 9 20 23 23 23 23 23 22 17 13 11
5 5 3 2 1 4 5 8 8 7 4 3 2 2 2 3 2 1 0 2 3 4 2 3 4 6 7 10 19 23 24 23 23 22 23 19 17 22
4 3 1 2 1 3 4 4 5 5 5 1 1 3 3 3 3 1 1 1 2 4 6 3 4 3 5 8 19 23 22 23 23 23 23 20 16 16
5 4 2 3 5 3 5 5 5 5 7 12 11 11 12 11 7 2 2 3 1 2 6 2 4 3 3 6 9 15 20 18 21 23 22 21 16 13
6 4 3 3 5 4 5 5 6 2 4 5 6 8 9 9 13 6 1 3 2 3 5 3 4 3 3 2 7 7 7 13 13 16 19 19 20 9
4 3 2 3 6 6 4 4 4 4 6 5 5 5 6 7 7 8 8 5 4 3 4 1 4 3 2 3 3 7 6 8 8 9 12 14 16 13
4 1 2 5 8 9 6 8 9 7 4 4 5 4 5 5 5 6 7 7 6 6 5 6 3 2 2 2 3 5 3 7 7 8 6 8 9 11
3 5 9 10 10 9 10 9 6 4 4 5 4 3 2 2 3 4 5 6 6 8 7 6 4 3 4 3 3 4 4 4 7 7 6 7 5 5
7 5 6 8 8 5 5 6 4 3 4 4 3 2 2 3 4 3 3 1 4 4 7 9 6 4 3 4 3 3 5 5 6 6 5 4 4 4
4 3 3 3 4 4 4 4 4 4 5 3 4 4 4 4 4 4 4 4 5 3 5 7 9 5 5 4 4 4 5 5 7 8 6 6 4 4
2 3 2 2 4 4 4 3 4 6 3 4 4 4 4 4 4 4 4 4 5 4 5 4 5 4 4 5 10 5 4 4 5 6 4 6 4 6
1 1 4 5 4 4 4 3 3 3 3 4 4 4 4 4 4 4 4 4 4 3 4 3 4 3 3 3 4 11 4 3 5 5 3 3 4 8
1 3 4 5 4 5 4 4 4 4 3 4 4 4 4 3 3 3 3 4 3 2 3 4 4 4 3 1 2 3 8 3 3 4 4 3 5 13
2 5 5 6 5 5 4 4 6 4 3 4 4 4 3 3 3 3 4 6 5 2 4 3 3 5 2 0 2 3 3 7 5 3 4 4 5 4
4 4 4 4 6 5 5 5 5 5 4 3 4 4 3 3 3 3 3 3 2 2 1 2 3 2 3 4 3 5 5 5 5 8 6 5 2 6
5 5 4 4 4 5 5 5 4 4 5 4 4 4 3 3 2 2 2 2 3 2 2 2 3 3 2 1 4 4 6 7 6 9 5 8 10 13
Wind_Direction
225 244 195 214 245 231 181 170 152 24 306 312 313 315 1 1 336 324 302 333 331 354 7 35 11 211 241 253 246 238 245 263 274 267 240 237 235 234
211 201 213 215 240 244 246 156 205 154 235 217 279 294 343 346 357 350 356 354 16 337 28 31 19 348 298 269 258 245 232 247 264 277 271 248 241 239
221 215 221 192 207 208 185 196 187 155 192 301 273 342 5 353 2 340 5 358 346 8 18 19 10 6 349 311 286 235 211 230 267 283 268 254 253 250
241 239 254 246 201 195 185 185 123 108 152 348 316 326 350 331 325 336 5 355 358 9 14 7 4 11 358 340 38 59 130 259 325 332 325 317 286 250
257 247 251 219 257 263 229 232 193 141 131 143 266 290 306 342 337 333 347 349 3 12 24 15 11 13 22 31 29 60 60 35 3 340 336 318 289 256
259 296 265 213 223 218 215 214 205 219 43 35 356 321 319 321 349 347 348 9 6 10 16 17 20 32 41 48 40 41 39 16 23 6 353 348 2 5
197 138 68 67 28 184 173 223 195 152 137 137 265 345 320 350 359 324 328 329 359 27 351 17 17 51 37 38 52 52 47 41 38 28 14 12 357 12
180 154 144 118 106 67 60 177 215 171 167 200 172 188 257 43 357 342 359 30 11 15 353 6 25 65 53 53 57 56 49 45 40 32 27 30 18 17
203 157 150 69 70 121 94 79 72 74 103 150 166 209 228 207 195 301 318 114 122 333 18 7 18 59 64 53 58 53 50 44 38 37 35 23 36 55
51 67 113 123 63 156 112 79 46 36 2 353 209 282 269 285 235 241 33 71 94 41 9 67 357 24 56 56 53 50 46 39 35 35 34 26 32 62
68 41 323 320 33 121 134 123 73 48 55 66 79 74 65 44 32 60 22 84 44 41 17 49 341 325 66 50 41 49 41 40 33 28 33 35 22 33
120 102 79 105 79 82 128 139 117 37 50 51 18 31 33 36 45 61 55 111 70 23 11 47 338 19 19 66 44 33 36 34 37 31 23 21 20 33
115 134 144 124 100 87 121 139 117 109 60 74 65 38 35 39 37 41 45 60 94 76 312 135 4 343 42 335 47 22 25 18 25 23 21 24 20 27
133 116 87 114 87 69 67 78 85 91 94 64 59 48 48 38 27 50 52 60 61 92 0 22 57 3 340 68 29 350 10 40 27 13 0 6 19 17
123 120 121 99 93 73 67 66 77 98 107 100 95 63 40 32 65 57 55 54 59 49 39 31 38 12 56 47 37 342 356 9 22 14 5 356 356 5
100 110 84 77 68 71 62 57 76 92 110 106 94 78 44 40 46 18 57 21 68 20 13 23 22 42 59 75 83 1 352 3 355 9 351 343 343 353
90 71 85 88 87 76 65 55 46 51 74 63 79 85 73 61 39 26 38 37 63 29 20 3 359 35 65 81 58 22 12 4 355 343 357 354 335 352
121 151 139 125 123 118 107 92 74 90 73 85 80 78 83 74 67 47 52 58 71 41 32 8 5 8 14 31 76 34 8 349 346 339 342 341 332 337
170 163 136 137 140 126 114 99 96 75 75 76 95 91 86 75 77 64 62 73 67 49 28 359 24 45 73 6 322 33 26 343 341 345 335 326 293 315
319 144 139 140 145 130 130 124 115 106 89 91 81 82 83 99 92 78 75 93 93 82 45 17 23 32 61 289 285 284 328 315 317 316 307 283 260 290
157 133 141 137 134 129 142 128 123 111 116 111 96 94 93 101 87 87 82 80 83 54 56 30 323 5 306 294 349 303 288 261 272 256 293 304 317 317
129 129 131 129 121 142 145 138 124 123 123 107 98 94 88 96 107 111 108 107 92 93 98 296 320 360 23 39 335 306 308 312 295 285 288 303 299 316
129 128 133 131 147 141 132 131 132 137 134 128 119 126 136 104 107 113 115 108 92 70 34 3 17 17 342 294 308 294 294 306 312 327 301 271 276 273